Regional Weather Roundup
Issued by NWS State College, PA

Home | Current Version | Previous Version | Text Only | Print | Product List | Glossary On
Versions: 1 2 3 4 5 6 7 8 9 10 11 12 13 14 15 16 17 18 19 20 21 22 23 24 25 26 27 28 29 30 31 32 33 34 35 36 37 38 39 40 41 42 43 44 45 46 47 48 49 50
000
ASUS41 KCTP 041210
RWRCTP

REGIONAL WEATHER ROUNDUP
NATIONAL WEATHER SERVICE STATE COLLEGE PA
800 AM EDT MON MAY 04 2015

Note: "fair" indicates few or no clouds below 12,000 feet with no
significant weather and/or obstructions to visibility.

* = STATION THAT DOES NOT REPORT PRECIPITATION /E.G. RAIN...SNOW...ETC/
    THUNDER OR FOG.

PAZ002>004-007>009-013>016-020>023-029>032-041300-
WESTERN PENNSYLVANIA

CITY           SKY/WX    TMP DP  RH WIND       PRES   REMARKS
ERIE           SUNNY     65  42  43 S12       30.11R
MEADVILLE      SUNNY     61  40  45 S8        30.16R
FRANKLIN*      SUNNY     61  39  44 S8        30.19R
NEW CASTLE     FAIR      60  46  59 CALM      30.18R
BEAVER COUNTY  SUNNY     57  43  58 S5        30.18
BUTLER*        SUNNY     57  43  58 CALM      30.20S
PITTSBURGH INT PTSUNNY   55  44  66 CALM      30.18R
PITTSBURGH     SUNNY     56  41  57 S9        30.19R
INDIANA*       SUNNY     57  45  62 E3        30.24R
LATROBE        SUNNY     52  48  87 CALM      30.22R
WASHINGTON CO* SUNNY     55  48  76 SW3       30.21S
$$

PAZ004>006-010>012-017>019-024>028-033>037-041-042-045-046-049>053-041300-
CENTRAL PENNSYLVANIA

CITY           SKY/WX    TMP DP  RH WIND       PRES   REMARKS
BRADFORD       PTSUNNY   60  40  47 S5        30.19S
DUBOIS         SUNNY     61  40  45 S3        30.20R
CLEARFIELD     SUNNY     50  43  77 CALM      30.22R
JOHNSTOWN      SUNNY     60  37  42 SW7       30.23R
ALTOONA        SUNNY     56  47  71 CALM      30.23R
STATE COLLEGE  SUNNY     55  45  67 SW6       30.22R
WILLIAMSPORT   MOSUNNY   54  43  66 CALM      30.21R
SELINSGROVE    MOSUNNY   52  48  86 CALM      30.22R
FT INDIANTOWN  SUNNY     56  47  71 SE1       30.22R
CAPITAL CITY   SUNNY     58  49  72 CALM      30.22R
HARRISBURG     MOSUNNY   59  50  72 CALM      30.22R
YORK           SUNNY     57  51  80 CALM      30.22R
$$

PAZ038>040-043-044-047-048-054-055-060>062-067>071-041300-
EASTERN PENNSYLVANIA

CITY           SKY/WX    TMP DP  RH WIND       PRES   REMARKS
SCRANTON       SUNNY     60  42  51 CALM      30.21R
MOUNT POCONO   SUNNY     63  40  42 W5        30.23R
ALLENTOWN      SUNNY     56  45  66 CALM      30.21R
QUAKERTOWN*    SUNNY     55  46  71 CALM      30.23R
READING        SUNNY     57  47  69 CALM      30.21R
LANCASTER      SUNNY     57  49  74 CALM      30.22R
COATESVILLE    SUNNY     64  46  52 SW3       30.23R
POTTSTOWN      SUNNY     58  49  72 CALM      30.23R
BLUE BELL      SUNNY     63  52  67 CALM      30.22R
DOYLESTOWN     SUNNY     59  48  67 CALM      30.21R
WILLOW GROVE   NOT AVBL
NORTH PHILA    SUNNY     64  49  57 CALM      30.23R
PHILADELPHIA   MOSUNNY   61  49  64 SW7       30.23R
$$


USA.gov is the U.S. government's official web portal to all federal, state and local government web resources and services.